| time (UTC) | temp F | wind direction | speed MPH | gust MPH | rain 1hr in | rain 24hr in | rain mn in | humidity % | barometer mb |
| 20260505124538 | 70 | 167 | 3.0 | 6.0 | 0.00 | 0.00 | 0.00 | 91 | 1011.3 |
| 20260505123034 | 69 | 196 | 3.0 | 6.0 | 0.00 | 0.00 | 0.00 | 92 | 1011.2 |
| 20260505121542 | 68 | 188 | 1.0 | 5.0 | 0.00 | 0.00 | 0.00 | 92 | 1011.1 |
| 20260505120047 | 68 | 0 | 1.0 | 7.0 | 0.00 | 0.00 | 0.00 | 92 | 1010.9 |
| 20260505114536 | 67 | 185 | 1.0 | 5.0 | 0.00 | 0.00 | 0.00 | 92 | 1010.9 |
| 20260505113035 | 67 | 153 | 2.0 | 5.0 | 0.00 | 0.00 | 0.00 | 92 | 1010.9 |
| 20260505111539 | 67 | 169 | 1.0 | 5.0 | 0.00 | 0.00 | 0.00 | 92 | 1011.0 |
| 20260505101543 | 67 | 180 | 2.0 | 4.0 | 0.00 | 0.00 | 0.00 | 92 | 1011.0 |
| 20260505100041 | 67 | 160 | 2.0 | 4.0 | 0.00 | 0.00 | 0.00 | 92 | 1011.0 |
| 20260505094534 | 67 | 169 | 0.0 | 5.0 | 0.00 | 0.00 | 0.00 | 91 | 1011.3 |
| 20260505093035 | 67 | 0 | 1.0 | 3.0 | 0.00 | 0.00 | 0.00 | 91 | 1011.3 |
| 20260505091539 | 67 | 209 | 0.0 | 4.0 | 0.00 | 0.00 | 0.00 | 91 | 1011.2 |
| 20260505090036 | 67 | 155 | 1.0 | 4.0 | 0.00 | 0.00 | 0.00 | 90 | 1011.1 |
| 20260505084543 | 67 | 196 | 1.0 | 5.0 | 0.00 | 0.00 | 0.00 | 90 | 1011.0 |
| 20260505083036 | 67 | 0 | 1.0 | 4.0 | 0.00 | 0.00 | 0.00 | 90 | 1011.1 |
| 20260505081538 | 67 | 118 | 1.0 | 5.0 | 0.00 | 0.00 | 0.00 | 90 | 1010.9 |
| 20260505080037 | 67 | 137 | 1.0 | 5.0 | 0.00 | 0.00 | 0.00 | 89 | 1011.0 |
| 20260505074537 | 67 | 141 | 2.0 | 7.0 | 0.00 | 0.00 | 0.00 | 89 | 1011.1 |
| 20260505073237 | 67 | 153 | 2.0 | 5.0 | 0.00 | 0.00 | 0.00 | 89 | 1011.2 |
| 20260505071537 | 67 | 191 | 1.0 | 6.0 | 0.00 | 0.00 | 0.00 | 88 | 1011.3 |
| 20260505070049 | 67 | 107 | 2.0 | 4.0 | 0.00 | 0.00 | 0.00 | 88 | 1011.4 |
| 20260505064537 | 67 | 174 | 1.0 | 6.0 | 0.00 | 0.00 | 0.00 | 87 | 1012.0 |
| 20260505063035 | 67 | 150 | 1.0 | 4.0 | 0.00 | 0.00 | 0.00 | 87 | 1012.0 |
| 20260505061543 | 67 | 156 | 1.0 | 6.0 | 0.00 | 0.00 | 0.00 | 86 | 1012.2 |
| 20260505060040 | 67 | 196 | 1.0 | 4.0 | 0.00 | 0.00 | 0.00 | 86 | 1012.1 |
| 20260505054537 | 67 | 203 | 1.0 | 3.0 | 0.00 | 0.00 | 0.00 | 86 | 1012.4 |
| 20260505053037 | 67 | 185 | 0.0 | 3.0 | 0.00 | 0.00 | 0.00 | 85 | 1012.3 |
| 20260505051535 | 67 | 0 | 1.0 | 4.0 | 0.00 | 0.00 | 0.00 | 85 | 1012.4 |
| 20260505041549 | 66 | 182 | 0.0 | 2.0 | 0.00 | 0.00 | 0.00 | 83 | 1013.1 |
| 20260505040045 | 67 | 0 | 0.0 | 2.0 | 0.00 | 0.00 | 0.00 | 82 | 1013.1 |
| 20260505034532 | 67 | 161 | 0.0 | 5.0 | 0.00 | 0.00 | 0.00 | 81 | 1013.0 |
| 20260505033032 | 67 | 189 | 2.0 | 6.0 | 0.00 | 0.00 | 0.00 | 80 | 1012.9 |
| 20260505031541 | 68 | 175 | 1.0 | 4.0 | 0.00 | 0.00 | 0.00 | 80 | 1013.0 |
| 20260505030035 | 68 | 208 | 0.0 | 6.0 | 0.00 | 0.00 | 0.00 | 79 | 1012.9 |
| 20260505024547 | 68 | 0 | 2.0 | 6.0 | 0.00 | 0.00 | 0.00 | 78 | 1012.7 |
| 20260505023032 | 68 | 198 | 3.0 | 7.0 | 0.00 | 0.00 | 0.00 | 78 | 1012.7 |
| 20260505021538 | 68 | 196 | 3.0 | 6.0 | 0.00 | 0.00 | 0.00 | 77 | 1012.6 |
| 20260505020034 | 68 | 184 | 2.0 | 6.0 | 0.00 | 0.00 | 0.00 | 77 | 1012.5 |
| 20260505014551 | 69 | 179 | 2.0 | 5.0 | 0.00 | 0.00 | 0.00 | 77 | 1012.5 |
| 20260505013033 | 69 | 173 | 1.0 | 7.0 | 0.00 | 0.00 | 0.00 | 76 | 1012.6 |
| 20260505011532 | 70 | 205 | 2.0 | 7.0 | 0.00 | 0.00 | 0.00 | 74 | 1012.5 |
| 20260505010035 | 70 | 179 | 2.0 | 6.0 | 0.00 | 0.00 | 0.00 | 73 | 1012.4 |
| 20260505004539 | 71 | 198 | 2.0 | 8.0 | 0.00 | 0.00 | 0.00 | 72 | 1012.5 |
| 20260505003035 | 72 | 139 | 4.0 | 9.0 | 0.00 | 0.00 | 0.00 | 70 | 1012.8 |
| 20260505001530 | 72 | 194 | 3.0 | 11.0 | 0.00 | 0.00 | 0.00 | 69 | 1012.6 |
| 20260505000040 | 73 | 198 | 4.0 | 10.0 | 0.00 | 0.00 | 0.00 | 68 | 1012.5 |
| 20260504234543 | 74 | 167 | 4.0 | 9.0 | 0.00 | 0.00 | 0.00 | 67 | 1012.5 |
| 20260504233052 | 74 | 135 | 4.0 | 11.0 | 0.00 | 0.00 | 0.00 | 66 | 1012.8 |
| 20260504231537 | 75 | 186 | 4.0 | 11.0 | 0.00 | 0.00 | 0.00 | 64 | 1013.1 |
| 20260504230042 | 75 | 225 | 5.0 | 12.0 | 0.00 | 0.00 | 0.00 | 64 | 1013.3 |
| 20260504224540 | 75 | 175 | 5.0 | 11.0 | 0.00 | 0.00 | 0.00 | 63 | 1013.3 |
| 20260504223052 | 76 | 177 | 6.0 | 12.0 | 0.00 | 0.00 | 0.00 | 62 | 1013.4 |
| 20260504221538 | 77 | 201 | 5.0 | 11.0 | 0.00 | 0.00 | 0.00 | 62 | 1013.5 |
| 20260504220035 | 77 | 200 | 6.0 | 13.0 | 0.00 | 0.00 | 0.00 | 61 | 1013.5 |
| 20260504214538 | 78 | 190 | 2.0 | 11.0 | 0.00 | 0.00 | 0.00 | 59 | 1013.6 |
| 20260504213045 | 77 | 198 | 4.0 | 11.0 | 0.00 | 0.00 | 0.00 | 58 | 1013.9 |
| 20260504211538 | 78 | 259 | 4.0 | 11.0 | 0.00 | 0.00 | 0.00 | 58 | 1013.9 |
| 20260504210040 | 77 | 202 | 4.0 | 11.0 | 0.00 | 0.00 | 0.00 | 58 | 1014.0 |
| 20260504204543 | 76 | 175 | 4.0 | 12.0 | 0.00 | 0.00 | 0.00 | 60 | 1014.3 |
| 20260504203041 | 79 | 199 | 4.0 | 9.0 | 0.00 | 0.00 | 0.00 | 56 | 1014.3 |
| 20260504201539 | 78 | 202 | 4.0 | 11.0 | 0.00 | 0.00 | 0.00 | 56 | 1014.7 |
| 20260504200033 | 76 | 139 | 4.0 | 11.0 | 0.00 | 0.00 | 0.00 | 58 | 1015.1 |
| 20260504194535 | 77 | 63 | 3.0 | 15.0 | 0.00 | 0.00 | 0.00 | 57 | 1015.1 |
| 20260504193035 | 77 | 179 | 6.0 | 15.0 | 0.00 | 0.00 | 0.00 | 57 | 1015.4 |
| 20260504191534 | 77 | 191 | 7.0 | 14.0 | 0.00 | 0.00 | 0.00 | 57 | 1015.8 |
| 20260504190036 | 77 | 173 | 5.0 | 17.0 | 0.00 | 0.00 | 0.00 | 58 | 1015.8 |
| 20260504184538 | 77 | 94 | 5.0 | 14.0 | 0.00 | 0.00 | 0.00 | 57 | 1015.8 |
| 20260504183034 | 76 | 148 | 4.0 | 16.0 | 0.00 | 0.00 | 0.00 | 56 | 1016.0 |
| 20260504181542 | 76 | 190 | 8.0 | 15.0 | 0.00 | 0.00 | 0.00 | 58 | 1016.1 |
| 20260504180035 | 76 | 187 | 7.0 | 17.0 | 0.00 | 0.00 | 0.00 | 55 | 1016.3 |
| 20260504174538 | 75 | 193 | 6.0 | 15.0 | 0.00 | 0.00 | 0.00 | 56 | 1016.3 |
| 20260504173036 | 76 | 164 | 6.0 | 17.0 | 0.00 | 0.00 | 0.00 | 55 | 1016.7 |
| 20260504171535 | 76 | 196 | 5.0 | 14.0 | 0.00 | 0.00 | 0.00 | 55 | 1017.1 |